Regional Weather Roundup
Issued by NWS

Home | Current Version | Previous Version | Graphics & Text | Print | Product List | Glossary On
Versions: 1 2 3 4 5 6 7 8 9 10 11 12 13 14 15 16 17 18 19 20 21 22 23 24 25 26 27 28 29 30 31 32 33 34 35 36 37 38 39 40 41 42 43 44 45 46 47 48 49 50
669
ASUS43 KDMX 270703
RWRIA

WEATHER ROUNDUP FOR IOWA
NATIONAL WEATHER SERVICE DES MOINES IA
200 AM CDT WED JUL 27 2016

NOTE: "FAIR" INDICATES FEW OR NO CLOUDS BELOW 12,000 FEET WITH NO
SIGNIFICANT WEATHER AND/OR OBSTRUCTIONS TO VISIBILITY.

* - THESE STATIONS ARE NOT NWS STATIONS...THUS NOT UNDER NWS
QUALITY CONTROL.  THEY ALSO DO NOT REPORT WEATHER SUCH
AS PRECIPITATION OR FOG.

IAZ001>003-012>014-020>022-031>034-043>046-270800-
   NORTHWEST IOWA

CITY           SKY/WX    TMP DP  RH WIND       PRES   REMARKS
CARROLL *      PTCLDY    64  64 100 S5        30.01F
CHEROKEE *     MOCLDY    67  66  96 S5        30.00F
DENISON *      PTCLDY    68  64  88 SE6       29.99F
LE MARS *      CLOUDY    68  66  94 W5        30.02R
SHELDON *      CLOUDY    68  66  94 CALM      30.00R
SIOUX CITY     CLOUDY    71  66  84 CALM      30.01R
SPENCER        PTCLDY    68  65  90 S5        30.00S
STORM LAKE *   PTCLDY    66  64  94 S8        30.02F
$$

IAZ055>058-069>071-079>083-090>094-270800-
   SOUTHWEST IOWA

CITY           SKY/WX    TMP DP  RH WIND       PRES   REMARKS
ATLANTIC *     PTCLDY    64  63  94 CALM      30.01F
CLARINDA *       N/A     64  64 100 MISG      30.03S
COUNCIL BLFS * PTCLDY    70  66  88 SE5       30.02R
CRESTON *      CLEAR     68  64  88 E5        30.03F
HARLAN  *      PTCLDY    64  64 100 CALM      30.05S
LAMONI         CLEAR     68  66  93 CALM      30.01F
RED OAK *      CLEAR     66  64  94 CALM      30.01F
SHENANDOAH *   CLEAR     68  68 100 CALM      30.01F
$$

IAZ047>049-059>061-072>074-084-270800-
   CENTRAL IOWA

CITY           SKY/WX    TMP DP  RH WIND       PRES   REMARKS
AMES           CLOUDY    65  65 100 CALM      30.02S
ANKENY *         N/A    N/A N/A N/A MISG        N/A
BOONE *        CLOUDY    68  64  88 CALM      30.01F
CHARITON *       N/A    N/A N/A N/A MISG        N/A
DES MOINES     CLOUDY    73  65  75 SE5       30.00F
GRINNELL*      PTCLDY    65  63  92 CALM      30.03S
KNOXVILLE *    CLEAR     70  64  83 CALM      29.99F
MARSHALLTOWN   CLOUDY    66  64  93 CALM      30.01F
NEWTON *       PTCLDY    68  66  94 CALM      30.01F
PELLA *        CLEAR     65  64  95 CALM      30.02F
PERRY *          N/A     65  64  99 CALM      30.01F
$$

IAZ004>006-015-016-023>025-035-036-270800-
   NORTH CENTRAL IOWA

CITY           SKY/WX    TMP DP  RH WIND       PRES   REMARKS
ALGONA *       CLOUDY    68  66  94 S6        30.02S
ESTHERVILLE    PTCLDY    65  64  97 S6        30.00F
FORT DODGE *   PTCLDY    68  64  88 S3        30.01F
MASON CITY     PTCLDY    67  64  90 S5        30.03F
FOREST CITY *    N/A     66  64  94 S5        30.01S
IOWA FALLS *     N/A     65  63  93 CALM      30.04S
$$

IAZ007>011-017>019-026>030-037>042-050>054-066-270800-
   NORTHEAST IOWA

CITY           SKY/WX    TMP DP  RH WIND       PRES   REMARKS
CEDAR RAPIDS   CLEAR     67  66  97 N3        30.01S
CHARLES CITY * CLEAR     68  68 100 S5        30.02F
CLINTON *      CLEAR     66  65  96 N5        30.01F
DECORAH *      CLEAR     68  66  94 CALM      30.01F
DUBUQUE        CLEAR     66  63  90 CALM      30.03S
MONTICELLO *   CLEAR     64  64 100 CALM      30.01S
OELWEIN *      CLEAR     66  64  94 CALM      30.03S
WATERLOO       CLEAR     65  63  93 CALM      30.00F
$$

IAZ064-065-067-068-078-270800-
   EAST CENTRAL IOWA

CITY           SKY/WX    TMP DP  RH WIND       PRES   REMARKS
DAVENPORT      CLEAR     65  63  93 CALM      30.00F
IOWA CITY      CLEAR     68  65  90 CALM      30.01F
MT. PLEASANT * CLEAR     69  69  98 CALM      30.00F
MUSCATINE *    CLEAR     68  66  94 CALM      30.00S
QUAD CITIES    CLEAR     68  64  87 CALM      29.99F
$$

IAZ062-063-075>077-085>089-095>099-270800-
   SOUTHEAST IOWA

CITY           SKY/WX    TMP DP  RH WIND       PRES   REMARKS
BURLINGTON     CLEAR     72  68  87 CALM      29.99F
FAIRFIELD *    PTCLDY    66  64  94 CALM      30.00F
KEOKUK *       CLEAR     70  68  94 CALM      29.98F
CENTERVILLE *    N/A     63  63 100 CALM      30.03S
OTTUMWA        CLEAR     65  64  97 CALM      30.00S FOG
WASHINGTON *   CLEAR     68  66  94 CALM      30.01F
$$

ABBREVIATIONS USED IN REMARKS
   TC - TEMPERATURES IN CELSIUS
  WCI - WIND CHILL INDEX
   HX - HEAT INDEX
  VSB - VISIBILITY
$$





USA.gov is the U.S. government's official web portal to all federal, state and local government web resources and services.